Location: Unspecified
(34.4950°S, 58.5160°W)
Time: 00:24:23
(UTC+00:00)

ARIANE 6 FM1 Upper Stage - Pass Details

Date: 19 April 2026
Orbit: 526 x 602 km, 62.0° (Epoch: 16 May)

Event Time Altitude Azimuth Distance (km) Brightness Sun altitude
Exits shadow 09:23:29 19° 270° (W) 1,415 4.0 -12.4°
Maximum altitude 09:25:28 26° 229° (SW) 1,162 3.8 -12.0°
Drops below altitude 10° 09:29:10 10° 171° (S) 1,932 5.4 -11.3°
Sets 09:31:46 0° 158° (SSE) 2,853 6.5 -10.7°
